Location: Gerlach
(40.6516°N, 119.3568°W)
Time: 14:52:59
(UTC-07:00)

A-11 Canister half - Pass Details

Date: 20 February 2024
Orbit: 1525 x 1683 km, 47.3° (Epoch: 21 April)

Event Time Altitude Azimuth Distance (km) Brightness Sun altitude
Exits shadow 02:45:32 47° 84° (E) 1,938 9.6 -45.0°
Drops below altitude 10° 02:51:56 10° 102° (ESE) 3,728 11.4 -43.9°
Sets 02:55:03 0° 105° (ESE) 4,728 12.1 -43.4°
